Weather History for KOVL - November, 2012

Change the Weather History Date:

Sunday, November 4, 2012

  Actual Average (KRWF) Record (KRWF)
Temperature  
Mean Temperature 38 °F -  
Max Temperature 41 °F 45 °F 79 °F (1975)
Min Temperature 35 °F 29 °F -3 °F (1991)
Degree Days  
Heating Degree Days 27    
Moisture  
Dew Point 35 °F    
Average Humidity 88    
Maximum Humidity 93    
Minimum Humidity 81    
Precipitation  
Precipitation 0.01 in - - ()
Sea Level Pressure  
Sea Level Pressure 30.15 in    
Wind  
Wind Speed 5 mph (East)    
Max Wind Speed 9 mph    
Max Gust Speed -    
Visibility 7 miles    
Events Rain    
Averages and records for this station are not official NWS values.
T = Trace of Precipitation, MM = Missing Value Source: NWS Daily Summary

Daily Weather History Graph

Daily Weather History Graph

Search for Another Location

Airport or City:

Trip Planner

Search our weather history database for the weather conditions in past years. The results will help you decide how hot, cold, wet, or windy it might be!

Date:

Astronomy

Nov. 04, 2012 Rise Set
Actual Time 7:02 AM CST 5:03 PM CST
Civil Twilight 6:32 AM CST 5:34 PM CST
Nautical Twilight 5:57 AM CST 6:09 PM CST
Astronomical Twilight 5:23 AM CST 6:43 PM CST
Moon 9:40 PM CST (11/4) 11:49 AM CST (11/4)
Length of Visible Light 11h 02m
Length of Day
10h 00m
Waning Gibbous, 72% of the Moon is Illuminated
Nov 4
Waning Gibbous
Nov 6
Last Quarter
Nov 13
New
Nov 20
First Quarter
Nov 28
Full

Hourly Weather History & Observations

Time (CST) Temp. Windchill Dew Point Humidity Pressure Visibility Wind Dir Wind Speed Gust Speed Precip Events Conditions
12:11 AM 37.4 °F 33.8 °F 33.8 °F 87% 30.19 in 10.0 mi East 4.6 mph - N/A   Overcast
12:31 AM 37.4 °F 32.1 °F 33.8 °F 87% 30.18 in 10.0 mi East 6.9 mph - N/A   Overcast
12:51 AM 35.6 °F 29.9 °F 33.8 °F 93% 30.18 in 10.0 mi ESE 6.9 mph - N/A   Overcast
1:10 AM 35.6 °F 30.7 °F 32.0 °F 87% 30.19 in 10.0 mi ESE 5.8 mph - N/A   Overcast
1:30 AM 35.6 °F 30.7 °F 32.0 °F 87% 30.18 in 10.0 mi ESE 5.8 mph - N/A   Overcast
1:51 AM 35.6 °F 31.7 °F 32.0 °F 87% 30.18 in 10.0 mi ESE 4.6 mph - N/A   Overcast
1:11 AM 35.6 °F 32.8 °F 33.8 °F 93% 30.19 in 10.0 mi ESE 3.5 mph - N/A   Overcast
1:31 AM 35.6 °F 31.7 °F 33.8 °F 93% 30.19 in 7.0 mi ESE 4.6 mph - N/A   Overcast
1:50 AM 35.6 °F 31.7 °F 33.8 °F 93% 30.19 in 5.0 mi ESE 4.6 mph - N/A   Overcast
2:11 AM 35.6 °F 32.8 °F 33.8 °F 93% 30.19 in 5.0 mi ESE 3.5 mph - N/A   Overcast
2:31 AM 35.6 °F - 33.8 °F 93% 30.19 in 5.0 mi Calm Calm - N/A   Overcast
2:51 AM 35.6 °F - 33.8 °F 93% 30.19 in 4.0 mi Calm Calm - N/A   Overcast
3:11 AM 35.6 °F 32.8 °F 33.8 °F 93% 30.18 in 3.0 mi East 3.5 mph - N/A Rain Light Rain
3:30 AM 35.6 °F 32.8 °F 33.8 °F 93% 30.18 in 4.0 mi ESE 3.5 mph - N/A   Overcast
3:51 AM 35.6 °F 32.8 °F 33.8 °F 93% 30.18 in 4.0 mi ESE 3.5 mph - N/A   Overcast
4:11 AM 35.6 °F - 33.8 °F 93% 30.19 in 4.0 mi Calm Calm - N/A   Overcast
4:30 AM 35.6 °F - 33.8 °F 93% 30.18 in 3.0 mi Calm Calm - N/A   Overcast
4:51 AM 35.6 °F - 33.8 °F 93% 30.19 in 4.0 mi Calm Calm - N/A   Overcast
5:11 AM 35.6 °F 31.7 °F 33.8 °F 93% 30.19 in 4.0 mi SE 4.6 mph - N/A   Overcast
5:31 AM 35.6 °F 31.7 °F 33.8 °F 93% 30.18 in 3.0 mi ESE 4.6 mph - 0.01 in   Overcast
5:51 AM 35.6 °F 31.7 °F 33.8 °F 93% 30.18 in 3.0 mi SE 4.6 mph - 0.01 in   Overcast
6:10 AM 35.6 °F 31.7 °F 33.8 °F 93% 30.18 in 4.0 mi ESE 4.6 mph - N/A   Light Drizzle
6:31 AM 35.6 °F 31.7 °F 33.8 °F 93% 30.18 in 4.0 mi SE 4.6 mph - N/A Rain Light Rain
6:50 AM 35.6 °F 31.7 °F 33.8 °F 93% 30.18 in 4.0 mi ESE 4.6 mph - N/A   Overcast
7:11 AM 35.6 °F 31.7 °F 33.8 °F 93% 30.18 in 2.5 mi ESE 4.6 mph - N/A Rain Light Rain
7:31 AM 35.6 °F 31.7 °F 33.8 °F 93% 30.18 in 2.5 mi ESE 4.6 mph - N/A Rain Light Rain
7:51 AM 35.6 °F 31.7 °F 33.8 °F 93% 30.18 in 2.5 mi ESE 4.6 mph - N/A   Overcast
8:11 AM 35.6 °F 31.7 °F 33.8 °F 93% 30.18 in 2.5 mi SE 4.6 mph - N/A   Overcast
8:31 AM 35.6 °F 31.7 °F 33.8 °F 93% 30.18 in 2.5 mi SE 4.6 mph - N/A   Overcast
8:51 AM 37.4 °F 33.8 °F 35.6 °F 93% 30.17 in 3.0 mi ESE 4.6 mph - N/A   Overcast
9:10 AM 37.4 °F 33.8 °F 35.6 °F 93% 30.17 in 4.0 mi SE 4.6 mph - N/A   Overcast
9:31 AM 39.2 °F 35.9 °F 37.4 °F 93% 30.16 in 5.0 mi ESE 4.6 mph - N/A   Overcast
9:51 AM 39.2 °F 35.0 °F 37.4 °F 93% 30.16 in 5.0 mi ESE 5.8 mph - N/A   Overcast
10:10 AM 39.2 °F 35.0 °F 35.6 °F 87% 30.16 in 5.0 mi ESE 5.8 mph - N/A   Overcast
10:31 AM 39.2 °F 35.0 °F 35.6 °F 87% 30.16 in 5.0 mi East 5.8 mph - N/A   Overcast
10:51 AM 39.2 °F 35.0 °F 35.6 °F 87% 30.15 in 5.0 mi East 5.8 mph - N/A   Overcast
11:11 AM 39.2 °F 33.6 °F 35.6 °F 87% 30.15 in 5.0 mi East 8.1 mph - N/A   Overcast
11:31 AM 39.2 °F 35.0 °F 35.6 °F 87% 30.15 in 5.0 mi East 5.8 mph - N/A   Overcast
11:51 AM 39.2 °F 35.0 °F 35.6 °F 87% 30.14 in 7.0 mi East 5.8 mph - N/A   Overcast
12:11 PM 41.0 °F 35.8 °F 35.6 °F 81% 30.13 in 7.0 mi East 8.1 mph - N/A   Overcast
12:31 PM 41.0 °F 37.1 °F 35.6 °F 81% 30.13 in 7.0 mi East 5.8 mph - N/A   Overcast
12:50 PM 41.0 °F 36.4 °F 35.6 °F 81% 30.12 in 7.0 mi East 6.9 mph - N/A   Overcast
1:10 PM 41.0 °F 36.4 °F 35.6 °F 81% 30.11 in 7.0 mi East 6.9 mph - N/A   Overcast
1:31 PM 41.0 °F 36.4 °F 37.4 °F 87% 30.11 in 7.0 mi East 6.9 mph - N/A   Overcast
1:51 PM 41.0 °F 36.4 °F 37.4 °F 87% 30.11 in 7.0 mi ENE 6.9 mph - N/A   Overcast
2:11 PM 41.0 °F 36.4 °F 37.4 °F 87% 30.10 in 7.0 mi East 6.9 mph - N/A   Overcast
2:31 PM 41.0 °F 37.1 °F 35.6 °F 81% 30.11 in 10.0 mi East 5.8 mph - N/A   Overcast
2:51 PM 41.0 °F 36.4 °F 35.6 °F 81% 30.11 in 7.0 mi ENE 6.9 mph - N/A   Overcast
3:10 PM 41.0 °F 36.4 °F 35.6 °F 81% 30.11 in 7.0 mi East 6.9 mph - N/A   Overcast
3:31 PM 41.0 °F 37.1 °F 35.6 °F 81% 30.11 in 7.0 mi ENE 5.8 mph - N/A   Overcast
3:51 PM 41.0 °F 36.4 °F 35.6 °F 81% 30.10 in 10.0 mi East 6.9 mph - N/A   Overcast
4:11 PM 41.0 °F 36.4 °F 35.6 °F 81% 30.10 in 7.0 mi East 6.9 mph - N/A   Overcast
4:31 PM 41.0 °F 36.4 °F 35.6 °F 81% 30.10 in 10.0 mi East 6.9 mph - N/A   Overcast
4:50 PM 41.0 °F 36.4 °F 35.6 °F 81% 30.11 in 7.0 mi East 6.9 mph - N/A   Overcast
5:11 PM 41.0 °F 36.4 °F 35.6 °F 81% 30.11 in 10.0 mi East 6.9 mph - N/A   Overcast
5:30 PM 41.0 °F 36.4 °F 35.6 °F 81% 30.11 in 10.0 mi East 6.9 mph - N/A   Overcast
5:51 PM 41.0 °F 36.4 °F 35.6 °F 81% 30.11 in 10.0 mi East 6.9 mph - N/A   Overcast
6:11 PM 39.2 °F 35.0 °F 35.6 °F 87% 30.11 in 10.0 mi ENE 5.8 mph - N/A   Overcast
6:30 PM 39.2 °F 35.0 °F 35.6 °F 87% 30.11 in 10.0 mi ENE 5.8 mph - N/A   Overcast
6:51 PM 39.2 °F 35.0 °F 35.6 °F 87% 30.12 in 10.0 mi ENE 5.8 mph - N/A   Overcast
7:11 PM 39.2 °F 35.0 °F 35.6 °F 87% 30.12 in 10.0 mi ENE 5.8 mph - N/A   Overcast
7:30 PM 39.2 °F 35.0 °F 35.6 °F 87% 30.12 in 10.0 mi NE 5.8 mph - N/A   Overcast
7:51 PM 39.2 °F 35.0 °F 35.6 °F 87% 30.11 in 10.0 mi NE 5.8 mph - N/A   Overcast
8:11 PM 39.2 °F 35.9 °F 35.6 °F 87% 30.11 in 10.0 mi NE 4.6 mph - N/A   Overcast
8:30 PM 39.2 °F 35.0 °F 35.6 °F 87% 30.11 in 10.0 mi NE 5.8 mph - N/A   Overcast
8:51 PM 39.2 °F 35.9 °F 35.6 °F 87% 30.11 in 10.0 mi NE 4.6 mph - N/A   Light Drizzle
9:11 PM 39.2 °F 35.0 °F 35.6 °F 87% 30.11 in 7.0 mi NE 5.8 mph - N/A Rain Rain
9:31 PM 39.2 °F 34.2 °F 35.6 °F 87% 30.11 in 7.0 mi NE 6.9 mph - N/A   Light Drizzle
9:50 PM 39.2 °F 33.6 °F 35.6 °F 87% 30.11 in 7.0 mi NE 8.1 mph - N/A   Overcast
10:11 PM 39.2 °F 34.2 °F 35.6 °F 87% 30.11 in 7.0 mi NNE 6.9 mph - N/A   Overcast
10:31 PM 39.2 °F 33.6 °F 35.6 °F 87% 30.11 in 7.0 mi NNE 8.1 mph - N/A   Overcast
10:51 PM 39.2 °F 33.0 °F 35.6 °F 87% 30.11 in 7.0 mi NNE 9.2 mph - N/A   Overcast